| time (UTC) | temp F | wind direction | speed MPH | gust MPH | rain 1hr in | rain 24hr in | rain mn in | humidity % | barometer mb |
| 20260504173024 | 70 | 231 | 0.0 | 5.0 | 0.00 | 0.00 | 0.00 | 48 | 1007.0 |
| 20260504171528 | 67 | 254 | 0.0 | 0.0 | 0.00 | 0.00 | 0.00 | 50 | 1007.0 |
| 20260504081559 | 51 | 243 | 0.0 | 0.0 | 0.00 | 0.00 | 0.00 | 40 | 1006.1 |
| 20260504080113 | 52 | 243 | 0.0 | 0.0 | 0.00 | 0.00 | 0.00 | 45 | 1006.1 |
| 20260504050008 | 60 | 209 | 0.0 | 0.0 | 0.00 | 0.00 | 0.00 | 57 | 1005.9 |
| 20260504044505 | 61 | 209 | 0.0 | 0.0 | 0.00 | 0.00 | 0.00 | 55 | 1006.0 |
| 20260504043112 | 62 | 209 | 0.0 | 0.0 | 0.00 | 0.00 | 0.00 | 54 | 1006.0 |
| 20260504041554 | 64 | 209 | 0.0 | 0.0 | 0.00 | 0.00 | 0.00 | 52 | 1005.9 |
| 20260504040113 | 66 | 209 | 0.0 | 0.0 | 0.00 | 0.00 | 0.00 | 50 | 1005.9 |
| 20260504034552 | 68 | 209 | 0.0 | 0.0 | 0.00 | 0.00 | 0.00 | 47 | 1005.7 |
| 20260504034505 | 68 | 209 | 0.0 | 0.0 | 0.00 | 0.00 | 0.00 | 47 | 1005.7 |
| 20260504033053 | 70 | 209 | 0.0 | 0.0 | 0.00 | 0.00 | 0.00 | 42 | 1005.7 |
| 20260504031557 | 73 | 209 | 0.0 | 0.0 | 0.00 | 0.00 | 0.00 | 40 | 1005.7 |
| 20260504030051 | 76 | 209 | 0.0 | 0.0 | 0.00 | 0.00 | 0.00 | 35 | 1005.7 |
| 20260504024549 | 79 | 209 | 0.0 | 0.0 | 0.00 | 0.00 | 0.00 | 30 | 1005.7 |
| 20260504023050 | 81 | 209 | 0.0 | 2.0 | 0.00 | 0.00 | 0.00 | 29 | 1005.6 |
| 20260504021540 | 83 | 212 | 0.0 | 0.0 | 0.00 | 0.00 | 0.00 | 24 | 1005.8 |
| 20260504020035 | 84 | 212 | 0.0 | 0.0 | 0.00 | 0.00 | 0.00 | 24 | 1005.9 |
| 20260504014530 | 84 | 212 | 0.0 | 0.0 | 0.00 | 0.00 | 0.00 | 23 | 1005.9 |
| 20260504013026 | 84 | 213 | 0.0 | 0.0 | 0.00 | 0.00 | 0.00 | 21 | 1006.1 |
| 20260504011522 | 84 | 220 | 0.0 | 0.0 | 0.00 | 0.00 | 0.00 | 22 | 1006.2 |
| 20260504010020 | 84 | 216 | 0.0 | 2.0 | 0.00 | 0.00 | 0.00 | 22 | 1006.3 |
| 20260504004514 | 83 | 246 | 0.0 | 4.0 | 0.00 | 0.00 | 0.00 | 24 | 1006.5 |
| 20260504003011 | 83 | 247 | 0.0 | 2.0 | 0.00 | 0.00 | 0.00 | 23 | 1006.7 |
| 20260504001505 | 82 | 355 | 1.0 | 4.0 | 0.00 | 0.00 | 0.00 | 25 | 1006.8 |
| 20260504000130 | 82 | 327 | 0.0 | 5.0 | 0.00 | 0.00 | 0.00 | 24 | 1006.9 |
| 20260503234557 | 82 | 282 | 2.0 | 8.0 | 0.00 | 0.00 | 0.00 | 24 | 1007.1 |
| 20260503233052 | 82 | 142 | 0.0 | 0.0 | 0.00 | 0.00 | 0.00 | 24 | 1007.2 |
| 20260503231548 | 83 | 225 | 2.0 | 5.0 | 0.00 | 0.00 | 0.00 | 23 | 1007.5 |
| 20260503230044 | 83 | 265 | 2.0 | 7.0 | 0.00 | 0.00 | 0.00 | 22 | 1007.7 |
| 20260503224539 | 84 | 259 | 3.0 | 7.0 | 0.00 | 0.00 | 0.00 | 22 | 1007.9 |
| 20260503223036 | 85 | 207 | 0.0 | 4.0 | 0.00 | 0.00 | 0.00 | 22 | 1008.1 |
| 20260503221531 | 84 | 244 | 1.0 | 6.0 | 0.00 | 0.00 | 0.00 | 24 | 1008.3 |
| 20260503220026 | 83 | 198 | 1.0 | 6.0 | 0.00 | 0.00 | 0.00 | 24 | 1008.5 |
| 20260503214522 | 82 | 299 | 0.0 | 0.0 | 0.00 | 0.00 | 0.00 | 25 | 1008.9 |
| 20260503213019 | 82 | 355 | 0.0 | 0.0 | 0.00 | 0.00 | 0.00 | 24 | 1009.0 |
| 20260503211512 | 82 | 319 | 0.0 | 4.0 | 0.00 | 0.00 | 0.00 | 23 | 1009.3 |
| 20260503210008 | 82 | 219 | 3.0 | 7.0 | 0.00 | 0.00 | 0.00 | 23 | 1009.5 |
| 20260503204506 | 80 | 30 | 0.0 | 5.0 | 0.00 | 0.00 | 0.00 | 24 | 1009.7 |
| 20260503203100 | 80 | 202 | 0.0 | 4.0 | 0.00 | 0.00 | 0.00 | 22 | 1009.9 |
| 20260503201556 | 79 | 360 | 2.0 | 8.0 | 0.00 | 0.00 | 0.00 | 24 | 1010.1 |
| 20260503200057 | 79 | 273 | 0.0 | 12.0 | 0.00 | 0.00 | 0.00 | 24 | 1010.3 |
| 20260503194547 | 78 | 265 | 2.0 | 12.0 | 0.00 | 0.00 | 0.00 | 25 | 1010.6 |
| 20260503193047 | 78 | 264 | 0.0 | 10.0 | 0.00 | 0.00 | 0.00 | 28 | 1010.7 |
| 20260503191537 | 77 | 319 | 2.0 | 8.0 | 0.00 | 0.00 | 0.00 | 27 | 1010.9 |
| 20260503190041 | 77 | 160 | 0.0 | 0.0 | 0.00 | 0.00 | 0.00 | 31 | 1011.1 |
| 20260503184528 | 76 | 273 | 0.0 | 6.0 | 0.00 | 0.00 | 0.00 | 33 | 1011.3 |
| 20260503183023 | 75 | 216 | 2.0 | 5.0 | 0.00 | 0.00 | 0.00 | 34 | 1011.5 |
| 20260503181518 | 74 | 211 | 1.0 | 3.0 | 0.00 | 0.00 | 0.00 | 37 | 1011.7 |
| 20260503180018 | 72 | 207 | 2.0 | 4.0 | 0.00 | 0.00 | 0.00 | 40 | 1011.9 |
| 20260503174509 | 72 | 148 | 1.0 | 5.0 | 0.00 | 0.00 | 0.00 | 41 | 1012.1 |